[[{"header":{"parameterUnit":"m.s-1","parameterCategory":1,"la1":30.2991,"la2":30.254,"lo1":-89.0895,"lo2":-89.0444,"dy":0.0017,"dx":0.0017,"nx":28,"ny":28,"refTime":"2023-06-28T21:00:00:Z","depth":0,"parameterNumber":2,"parameterNumberName":"U-component_of_WINDS"},"data":[0,0,0,0,0,0,0,0,0,0,0,0,0,0,0,0,0,0,0,0,0,0,0,0,0,0,0,0,0,0,0,0,0,0,0,0,0,0,0,0,0,0,0,0,0,0,0,0,0,0,0,0,0,0,0,0,0,0,-0.1555,-0.1556,0,-0.1634,-0.1635,-0.1636,-0.174,-0.1742,-0.1744,-0.1745,-0.1822,-0.1822,-0.1822,0,0,0,0,0,0,0,0,0,0,0,0,0,-0.1492,-0.1492,-0.1555,-0.1556,-0.1557,-0.1634,-0.1635,-0.1636,-0.174,-0.1742,-0.1744,-0.1746,-0.1821,-0.1822,-0.1822,0,0,0,0,0,0,0,0,0,0,0,0,0,-0.154,-0.1493,-0.1554,-0.1618,-0.1625,-0.1633,-0.1635,-0.1636,-0.174,-0.1742,-0.1745,-0.1747,-0.1821,-0.1822,-0.1823,-0.1774,0,0,-0.1824,-0.1825,0,0,0,0,0,0,0,0,-0.1537,-0.1542,-0.1608,-0.1614,-0.1621,-0.168,-0.1641,-0.1682,-0.1739,-0.1696,-0.1745,-0.1748,-0.1772,-0.1777,-0.1786,-0.1777,-0.1781,-0.1824,-0.1825,-0.1825,-0.1825,0,0,0,0,0,0,0,-0.1533,-0.1539,-0.1586,-0.1609,-0.1617,-0.1642,-0.1652,-0.1649,-0.1718,-0.17,-0.1708,-0.1716,-0.1776,-0.1785,-0.1788,-0.1782,-0.1824,-0.1825,-0.1825,-0.1826,-0.174,-0.1737,0,0,0,0,0,0,-0.1521,-0.1535,-0.1583,-0.1588,-0.1585,-0.1641,-0.1652,-0.1658,-0.1718,-0.173,-0.1713,-0.172,-0.1783,-0.1788,-0.1791,-0.1739,-0.1825,-0.1826,-0.1826,-0.1742,-0.1739,-0.1736,0,0,0,0,0,0,-0.1519,-0.1524,-0.158,-0.1564,-0.1573,-0.1639,-0.1646,-0.1658,-0.1667,-0.1729,-0.1741,-0.171,-0.1785,-0.1791,-0.1778,-0.1743,-0.1826,-0.1826,-0.1745,-0.1741,-0.1738,-0.1633,0,0,0,0,0,0,-0.1517,-0.1523,-0.1505,-0.1563,-0.1574,-0.1566,-0.1644,-0.1658,-0.1669,-0.1679,-0.1729,-0.174,-0.1787,-0.1777,-0.1779,-0.1746,-0.1827,-0.1749,-0.1744,-0.1739,-0.164,-0.1626,-0.1614,0,0,0,0,0,-0.1514,-0.1471,-0.1504,-0.1509,-0.1553,-0.1564,-0.157,-0.1627,-0.1665,-0.1648,-0.1688,-0.1738,-0.1747,-0.1775,-0.1778,-0.1744,-0.1751,-0.1745,-0.1739,-0.1646,-0.1629,-0.1615,0,0,0,0,0,0,-0.1405,-0.148,-0.1517,-0.1491,-0.1521,-0.1581,-0.1561,-0.1607,-0.1624,-0.1632,-0.1702,-0.1712,-0.1691,-0.1717,-0.1746,-0.1701,-0.1757,-0.1751,-0.1685,-0.1669,-0.1657,-0.165,-0.1827,0,0,0,0,0,-0.1379,-0.1382,-0.1447,-0.1418,-0.1431,-0.1493,-0.15,-0.1542,-0.1574,-0.1587,-0.1626,-0.1654,-0.1664,-0.1668,-0.1681,-0.1646,-0.1658,-0.1624,-0.1611,-0.1601,-0.1594,-0.1578,-0.1564,-0.1717,-0.1717,-0.1717,0,0,-0.1323,-0.1364,-0.1362,-0.1397,-0.1425,-0.1426,-0.1503,-0.15,-0.1502,-0.1586,-0.1577,-0.1607,-0.1643,-0.162,-0.1611,-0.164,-0.1555,-0.1593,-0.1584,-0.1583,-0.1571,-0.1556,-0.1543,-0.1713,-0.1713,-0.1714,0,0,-0.1222,-0.1253,-0.1234,-0.1261,-0.1303,-0.1345,-0.134,-0.1395,-0.1418,-0.1411,-0.1475,-0.1478,-0.1493,-0.1516,-0.153,-0.1442,-0.1488,-0.1444,-0.1376,-0.136,-0.1348,-0.1337,-0.1305,-0.1293,-0.1438,-0.1438,-0.1438,0,-0.1146,-0.1152,-0.1217,-0.1212,-0.1226,-0.1305,-0.1285,-0.1308,-0.1351,-0.1358,-0.1391,-0.1413,-0.1443,-0.1427,-0.1406,-0.1415,-0.1411,-0.1437,-0.1344,-0.1335,-0.1326,-0.1296,-0.1284,-0.1432,-0.1433,-0.1433,-0.1434,0,-0.1057,-0.106,-0.1039,-0.1081,-0.1093,-0.108,-0.1143,-0.1147,-0.1189,-0.1228,-0.122,-0.126,-0.1282,-0.1282,-0.1322,-0.1272,-0.1289,-0.1332,-0.1389,-0.1305,-0.1278,-0.1267,-0.1424,-0.1426,-0.1428,-0.1429,0,0,-0.0885,-0.0967,-0.0957,-0.0978,-0.1032,-0.1035,-0.1027,-0.1051,-0.1053,-0.1081,-0.1075,-0.1088,-0.1129,-0.1145,-0.1189,-0.1175,-0.1103,-0.1221,-0.1223,-0.1196,-0.1049,-0.1015,-0.1001,-0.1135,-0.1133,-0.1132,-0.1046,0,-0.0793,-0.0784,-0.0844,-0.0818,-0.0822,-0.09,-0.0892,-0.0924,-0.0961,-0.0969,-0.101,-0.1017,-0.1072,-0.1082,-0.1072,-0.1113,-0.1074,-0.1121,-0.1129,-0.1128,-0.1115,-0.0987,-0.095,-0.0867,-0.1036,-0.1034,-0.1033,0,-0.0683,-0.0707,-0.0682,-0.074,-0.0744,-0.0736,-0.0764,-0.0771,-0.0809,-0.0838,-0.0857,-0.0909,-0.0904,-0.096,-0.0955,-0.0985,-0.0993,-0.1014,-0.1012,-0.1013,-0.1074,-0.0983,-0.0842,-0.0829,-0.1017,-0.1019,-0.102,0,-0.0559,-0.0586,-0.0575,-0.0591,-0.0657,-0.065,-0.0677,-0.0719,-0.073,-0.0755,-0.0763,-0.0785,-0.0797,-0.0814,-0.087,-0.0906,-0.0858,-0.0919,-0.088,-0.0878,-0.0864,-0.0863,-0.072,-0.0871,-0.0872,-0.0872,-0.0872,0,-0.0448,-0.043,-0.0521,-0.0513,-0.0495,-0.0566,-0.0546,-0.0581,-0.0617,-0.0618,-0.0687,-0.0686,-0.0762,-0.0769,-0.0813,-0.0802,-0.0807,-0.0829,-0.084,-0.0822,-0.0818,-0.0825,-0.0832,-0.0869,-0.0869,-0.087,-0.0871,0,-0.0305,-0.0366,-0.0359,-0.0424,-0.0441,-0.0424,-0.048,-0.0476,-0.0519,-0.0519,-0.0523,-0.0589,-0.0602,-0.0661,-0.0687,-0.0717,-0.069,-0.0714,-0.0677,-0.0684,-0.0642,-0.0644,-0.0497,-0.0481,-0.0643,-0.0641,-0.064,0,-0.023,-0.0218,-0.0283,-0.029,-0.0314,-0.0324,-0.0337,-0.0406,-0.0417,-0.0461,-0.0452,-0.0471,-0.0489,-0.0506,-0.0555,-0.0576,-0.0601,-0.0548,-0.0604,-0.0586,-0.0598,-0.0598,-0.0597,-0.0534,-0.0532,-0.053,-0.0529,0,-0.0089,-0.012,-0.0137,-0.0164,-0.0178,-0.0203,-0.0231,-0.0233,-0.031,-0.0318,-0.0334,-0.0348,-0.0377,-0.0394,-0.0424,-0.0452,-0.0502,-0.0512,-0.0504,-0.0483,-0.0462,-0.0472,-0.0642,-0.0514,-0.0515,-0.0516,-0.0517,-0.0518,0.0023,0.003,-0.0016,-0.0032,-0.0062,-0.0088,-0.0088,-0.0132,-0.0147,-0.0176,-0.0217,-0.0227,-0.0268,-0.0313,-0.0337,-0.0345,-0.0374,-0.0363,-0.0359,-0.0355,-0.0345,-0.0462,-0.0351,-0.0352,-0.0352,-0.0353,-0.0353,0,0.0162,0.0127,0.0112,0.0073,0.006,0.0009,-0.0026,-0.0033,-0.0041,-0.0076,-0.0094,-0.0112,-0.013,-0.0183,-0.0207,-0.0203,-0.0227,-0.0207,-0.0207,-0.0212,-0.0318,-0.0323,-0.0187,-0.0187,-0.0187,-0.0187,-0.0187,-0.0187,0.0232,0.024,0.0203,0.0195,0.0161,0.0149,0.0134,0.0109,0.0081,0.0063,0.0047,0.0011,-0.0031,-0.0059,-0.0078,-0.0093,-0.0097,-0.0069,-0.0091,-0.0189,-0.0205,-0.022,-0.0224,-0.007,-0.0069,0.0016,0.0017,0.0017]},{"header":{"parameterUnit":"m.s-1","parameterCategory":1,"la1":30.2991,"la2":30.254,"lo1":-89.0895,"lo2":-89.0444,"dy":0.0017,"dx":0.0017,"nx":28,"ny":28,"refTime":"2023-06-28T21:00:00:Z","depth":0,"parameterNumber":3,"parameterNumberName":"V-component_of_WINDS"},"data":[0,0,0,0,0,0,0,0,0,0,0,0,0,0,0,0,0,0,0,0,0,0,0,0,0,0,0,0,0,0,0,0,0,0,0,0,0,0,0,0,0,0,0,0,0,0,0,0,0,0,0,0,0,0,0,0,0,0,0.8086,0.8086,0,0.8152,0.8153,0.8154,0.8176,0.8176,0.8176,0.8175,0.8247,0.8249,0.8251,0,0,0,0,0,0,0,0,0,0,0,0,0,0.7982,0.7984,0.8086,0.8086,0.8087,0.8152,0.8153,0.8154,0.8176,0.8176,0.8176,0.8175,0.8246,0.8249,0.8251,0,0,0,0,0,0,0,0,0,0,0,0,0,0.8036,0.7984,0.8085,0.8106,0.8109,0.8152,0.8153,0.8154,0.8176,0.8176,0.8176,0.8175,0.8245,0.8248,0.8252,0.828,0,0,0.8262,0.8263,0,0,0,0,0,0,0,0,0.8032,0.8039,0.8102,0.8105,0.8108,0.8155,0.8143,0.8197,0.8177,0.8151,0.8175,0.8175,0.8217,0.8223,0.8236,0.8284,0.8287,0.8262,0.8264,0.8265,0.8266,0,0,0,0,0,0,0,0.8029,0.8037,0.8112,0.8103,0.8107,0.8113,0.8121,0.8153,0.8186,0.8153,0.8155,0.8162,0.8218,0.8233,0.8238,0.8288,0.8262,0.8265,0.8267,0.8268,0.8364,0.8364,0,0,0,0,0,0,0.8021,0.8033,0.811,0.8114,0.8068,0.8116,0.8124,0.8141,0.8185,0.8192,0.8162,0.8163,0.8228,0.8234,0.8241,0.8278,0.8265,0.8268,0.827,0.8363,0.8364,0.8364,0,0,0,0,0,0,0.8019,0.8028,0.8107,0.8074,0.8085,0.8118,0.8137,0.8142,0.8157,0.8192,0.8199,0.8171,0.8227,0.8236,0.827,0.8281,0.827,0.8273,0.8362,0.8363,0.8364,0.8352,0,0,0,0,0,0,0.8016,0.8027,0.8037,0.8074,0.8087,0.8135,0.8137,0.8144,0.8162,0.8163,0.8202,0.8208,0.8228,0.8265,0.8274,0.8285,0.8275,0.8362,0.8363,0.8364,0.8352,0.8352,0.8353,0,0,0,0,0,0.8012,0.8031,0.8037,0.8046,0.81,0.8135,0.8142,0.8164,0.8162,0.8174,0.8197,0.8207,0.8278,0.8269,0.8278,0.8291,0.8361,0.8362,0.8364,0.8351,0.8352,0.8353,0,0,0,0,0,0,0.7995,0.8036,0.8043,0.8075,0.8101,0.8139,0.8153,0.8164,0.8192,0.8192,0.8218,0.8227,0.8259,0.8279,0.8267,0.8321,0.832,0.8324,0.8308,0.8309,0.8309,0.8304,0.8278,0,0,0,0,0,0.7995,0.8019,0.8054,0.8079,0.8091,0.812,0.8136,0.8151,0.8179,0.8191,0.8216,0.8245,0.8274,0.8292,0.8321,0.8355,0.8364,0.8368,0.8369,0.8369,0.8372,0.8393,0.8395,0.8369,0.8369,0.8369,0,0,0.7995,0.802,0.8034,0.8076,0.8098,0.8124,0.8129,0.8156,0.8176,0.8195,0.8229,0.8249,0.8283,0.8317,0.8334,0.8334,0.8381,0.8371,0.8371,0.8373,0.8394,0.8397,0.8399,0.837,0.837,0.8369,0,0,0.8008,0.8029,0.8053,0.8075,0.8107,0.8127,0.8132,0.8168,0.8182,0.8216,0.8232,0.8257,0.8305,0.8329,0.8347,0.8371,0.8382,0.838,0.8383,0.8403,0.8406,0.8407,0.8417,0.842,0.8382,0.8382,0.8382,0,0.8004,0.8042,0.8064,0.809,0.8109,0.8126,0.8151,0.8172,0.8213,0.8226,0.8226,0.8288,0.8312,0.8353,0.8359,0.8373,0.8381,0.8375,0.8403,0.8405,0.8408,0.8417,0.8421,0.8382,0.8382,0.8382,0.8382,0,0.8037,0.8063,0.8078,0.8117,0.8137,0.8162,0.8189,0.8207,0.822,0.824,0.8275,0.8305,0.834,0.8351,0.8364,0.8394,0.8393,0.8398,0.8397,0.8409,0.8419,0.8422,0.8381,0.8381,0.8381,0.8382,0,0,0.8041,0.8091,0.8096,0.8115,0.8153,0.8174,0.8201,0.8235,0.8251,0.8279,0.8303,0.8344,0.8349,0.837,0.8386,0.8403,0.8422,0.8406,0.8407,0.8409,0.8459,0.8455,0.8459,0.8429,0.843,0.843,0.8456,0,0.806,0.8107,0.8128,0.8167,0.8192,0.821,0.8234,0.826,0.828,0.8305,0.8328,0.8357,0.836,0.8373,0.8391,0.8415,0.8432,0.8414,0.8453,0.8454,0.8445,0.8464,0.846,0.8483,0.846,0.846,0.8461,0,0.8088,0.8116,0.8156,0.8192,0.8204,0.8225,0.8258,0.8282,0.8313,0.8326,0.835,0.8365,0.8396,0.8393,0.8437,0.8424,0.8441,0.8456,0.8458,0.8462,0.8459,0.847,0.8491,0.8495,0.8467,0.8466,0.8466,0,0.8088,0.8136,0.8166,0.8181,0.8224,0.8238,0.8257,0.8288,0.8307,0.8337,0.835,0.8383,0.8401,0.8427,0.8452,0.8447,0.8494,0.8492,0.8507,0.8506,0.8516,0.8515,0.854,0.8526,0.8526,0.8526,0.8526,0,0.8108,0.8132,0.8167,0.8186,0.8215,0.8239,0.8267,0.8287,0.8315,0.8339,0.8357,0.838,0.8411,0.8438,0.8458,0.8492,0.85,0.8512,0.8517,0.8511,0.851,0.8523,0.8523,0.8527,0.8526,0.8526,0.8526,0,0.8113,0.8137,0.8172,0.8209,0.8219,0.8239,0.8271,0.8292,0.8312,0.8343,0.8352,0.8384,0.8418,0.8444,0.8488,0.8501,0.8537,0.8543,0.8526,0.8529,0.8542,0.8541,0.8578,0.8585,0.8565,0.8565,0.8565,0,0.8124,0.8143,0.8182,0.8199,0.8217,0.8245,0.8265,0.829,0.831,0.8348,0.8364,0.8398,0.8427,0.8479,0.8508,0.8542,0.8549,0.856,0.8554,0.8548,0.8551,0.8549,0.8552,0.856,0.856,0.856,0.8561,0,0.8141,0.8152,0.8179,0.821,0.8233,0.826,0.8287,0.83,0.833,0.8353,0.8386,0.8408,0.8453,0.8488,0.8525,0.8546,0.8559,0.8562,0.8567,0.8561,0.8551,0.8558,0.8529,0.8561,0.8561,0.8561,0.8561,0.8561,0.815,0.8168,0.8199,0.8229,0.8251,0.8277,0.8297,0.832,0.8348,0.8386,0.84,0.8435,0.8468,0.8519,0.854,0.8569,0.857,0.8578,0.858,0.8581,0.8581,0.8546,0.8576,0.8576,0.8576,0.8576,0.8576,0,0.8169,0.8189,0.8217,0.8253,0.8277,0.8286,0.8317,0.8337,0.8367,0.8396,0.8424,0.8464,0.8498,0.8529,0.8565,0.8582,0.8589,0.8591,0.859,0.8595,0.8577,0.8569,0.8585,0.8585,0.8585,0.8585,0.8585,0.8585,0.8181,0.8213,0.8228,0.8272,0.8293,0.8327,0.8344,0.8367,0.8391,0.8434,0.8462,0.8481,0.8512,0.8551,0.8583,0.8591,0.8604,0.8605,0.8615,0.8598,0.8596,0.8595,0.8588,0.8607,0.8607,0.8631,0.8631,0.8631]}]]